This is the latest recevied weather packets stored in our database for station/object KO4MMQ-10. If no packets are shown the sender has not sent any weather packets the latest 10 day(s).
| Time | Temp. | Humidity | Pressure | Rain* | Wind** | Luminosity | Snow |
|---|---|---|---|---|---|---|---|
| 1777696708 | 13.33° C | 54% | 1016.5 hPa | 0 mm | - | - | - |
| 1777694908 | 13.33° C | 53% | 1016 hPa | 0 mm | - | - | - |
| 1777692508 | 13.89° C | 55% | 1016.1 hPa | 0 mm | - | - | - |
| 1777691309 | 13.89° C | 55% | 1016 hPa | 0 mm | - | - | - |
| 1777690108 | 13.89° C | 58% | 1016.5 hPa | 0 mm | - | - | - |
| 1777689508 | 13.89° C | 56% | 1016.6 hPa | 0 mm | - | - | - |
| 1777688908 | 13.89° C | 60% | 1016.8 hPa | 0 mm | - | - | - |
| 1777688308 | 13.89° C | 60% | 1016.8 hPa | 0 mm | - | - | - |
| 1777687708 | 13.89° C | 56% | 1016.8 hPa | 0 mm | - | - | - |
| 1777687108 | 14.44° C | 53% | 1016.7 hPa | 0 mm | - | - | - |
| 1777686508 | 14.44° C | 55% | 1016.7 hPa | 0 mm | - | - | - |
| 1777684108 | 15° C | 53% | 1015.6 hPa | 0 mm | - | - | - |
| 1777682308 | 15.56° C | 54% | 1015.5 hPa | 0 mm | - | - | - |
| 1777681108 | 16.11° C | 50% | 1015.2 hPa | 0 mm | - | - | - |
| 1777680509 | 16.67° C | 48% | 1015.1 hPa | 0 mm | - | - | - |
| 1777679908 | 16.67° C | 49% | 1014.9 hPa | 0 mm | - | - | - |
| 1777679309 | 16.67° C | 50% | 1014.9 hPa | 0 mm | - | - | - |
| 1777678708 | 17.22° C | 48% | 1014.5 hPa | 0 mm | - | - | - |
| 1777678108 | 17.22° C | 50% | 1014.4 hPa | 0 mm | - | - | - |
| 1777677508 | 17.22° C | 50% | 1014.5 hPa | 0 mm | - | - | - |
| 1777675709 | 18.89° C | 44% | 1014.1 hPa | 0 mm | - | - | - |
| 1777675108 | 18.33° C | 47% | 1013.8 hPa | 0 mm | - | - | - |
| 1777674508 | 17.78° C | 46% | 1013.9 hPa | 0 mm | - | - | - |
| 1777673908 | 17.78° C | 46% | 1013.8 hPa | 0 mm | - | - | - |
| 1777673308 | 17.78° C | 48% | 1013.7 hPa | 0 mm | - | - | - |
* Rain latest hour (hover to see other rain measurements)
** Current wind speed in m/s (hover to see current wind gust speed)